KDPL

Details ICAO KDPL
Name DUPLIN CO
Region United States
Timezone America/New_York (UTC-4.0)
Plans Departing 0
Arriving 1
Stats Elevation 137 ft / 42 m (AMSL)
Location 35.000062° -77.981695°
Runways 1
Magnetic Variation 9.536° W
Sunrise 2018-05-25 10:03:30 UTC / 2018-05-25 06:03:30 Local
Sunset 2018-05-26 00:17:08 UTC / 2018-05-25 20:17:08 Local
Advertisement - Login to hide

Runways

ID Width Length Bearing (true) Bearing (mag) Surface Threshold Offset Overrun Length
05 75 ft / 23 m 6,008 ft / 1,831 m 36.22° 45.76° Asphalt 0 ft / 0 m 0 ft / 0 m
23 75 ft / 23 m 6,008 ft / 1,831 m 216.23° 225.77° Asphalt 0 ft / 0 m 0 ft / 0 m

Map

Weather


0- 5 10 15 20 25 30 35+ Temperature / ° C

Clouds and Precipitation
Forecast for 2018-05-25 00:00 UTC. Updated 6 hours ago

Ground ~20,000 ft ~40,000 ft Winds

METAR

KDPL 250435Z AUTO 00000KT 5SM BR CLR 18/17 A3016 RMK AO2

TAF

Not found

Frequencies

Recorded 120.67 MHz AWOS 3
Approach 119.70 MHz SEYMOUR JOHNSON APP
Unicom 123.00 MHz CTAF/UNICOM
Warning: Do not use this data for real-world aviation or navigation. No guarantee of current accuracy is given.